Flag for Tajikistan Weather past 2 weeks in Dushanbe, Tajikistan

Now
84 °F

Scattered clouds.


Feels Like: 82 °F
Forecast: 59 / 83 °F
Wind: 3 mph from North

Location: Dushanbe Airport

Current Time: Sep 3, 2015 at 4:12:55 PM

Latest Report: Sep 3, 2015 at 3:30 PM


Visibility: N/A

Pressure: 30.04 "Hg (27.34 "Hg at 832m altitude)

Humidity: 22%

Dew point: 41 °F

Location of DushanbeLocation

Historic Weather in Dushanbe — Graph

°F

Dushanbe temperature yesterday

Maximum temperature yesterday: 88 °F (at 1:00 PM)
Minimum temperature yesterday: 61 °F (at 2:30 AM)
Average temperature yesterday: 75 °F

Past Weeks' High & Low Weather Summary

 TemperatureHumidityPressure
High102 °F (Aug 19, 3:00 PM)78% (Aug 27, 8:30 AM)30.09 "Hg (Aug 27, 8:30 AM)
Low57 °F (Aug 24, 5:00 AM)12% (Aug 20, 3:00 PM)29.68 "Hg (Aug 21, 3:30 PM)
Average77 °F39%29.91 "Hg
* Reported Aug 19 3:00 PM — Sep 3 3:00 PM, Dushanbe, Weather by CustomWeather, © 2015

Note: Actual official high and low records may vary slightly from our data, if they occured in-between our weather recording intervals... More about our weather records

Advertising

Dushanbe weather history for previous 24 hours

 ConditionsComfort  
Time TempWeatherWind HumidityBarometerVisibility
3:00 PM
Thu, Sep 3
82 °FPassing clouds.6 mph23%30.04 "HgN/A
2:30 PM82 °FPassing clouds.8 mph23%30.07 "HgN/A
2:00 PM82 °FPassing clouds.8 mph23%30.07 "HgN/A
1:30 PM82 °FScattered clouds.3 mph23%30.07 "HgN/A
1:00 PM81 °FScattered clouds.3 mph26%30.07 "HgN/A
12:30 PM79 °FScattered clouds.3 mph30%30.09 "HgN/A
12:00 PM75 °FPartly sunny.3 mph39%30.09 "HgN/A
11:30 AM75 °FPartly sunny.1 mph41%30.09 "HgN/A
11:00 AM73 °FBroken clouds.1 mph44%30.09 "HgN/A
10:30 AM72 °FMore clouds than sun.1 mph47%30.09 "HgN/A
10:00 AM72 °FMore clouds than sun.3 mph44%30.09 "HgN/A
9:30 AM73 °FPartly sunny.1 mph41%30.09 "HgN/A
9:00 AM72 °FCloudy.6 mph41%30.07 "HgN/A
8:30 AM70 °FCloudy.3 mph43%30.07 "Hg6 mi
8:00 AM70 °FOvercast.No wind46%30.07 "HgN/A
7:30 AM70 °FOvercast.3 mph43%30.07 "HgN/A
7:00 AM70 °FOvercast.1 mph43%30.04 "HgN/A
6:30 AM68 °FPartly sunny.No wind46%30.04 "HgN/A
6:00 AM66 °FMore clouds than sun.No wind49%30.01 "HgN/A
5:30 AM68 °FMostly cloudy.No wind40%30.01 "HgN/A
5:00 AM68 °FMostly cloudy.No wind40%30.01 "HgN/A
4:30 AM68 °FMostly cloudy.3 mph43%29.98 "HgN/A
4:00 AM68 °FMostly cloudy.1 mph40%29.98 "HgN/A
3:30 AM68 °FMostly cloudy.1 mph43%29.98 "HgN/A
2:30 AM68 °FMostly cloudy.3 mph46%29.98 "HgN/A
2:00 AM72 °FPassing clouds.3 mph33%29.95 "HgN/A
1:30 AM73 °FPassing clouds.6 mph31%29.95 "HgN/A
1:00 AM72 °FPartly cloudy.6 mph36%29.95 "HgN/A
12:30 AM72 °FMostly cloudy.6 mph38%29.98 "HgN/A
12:00 AM72 °FMostly cloudy.6 mph41%29.98 "HgN/A
11:30 PM
Wed, Sep 2
72 °FMostly cloudy.3 mph44%29.98 "HgN/A
11:00 PM75 °FMostly cloudy.3 mph31%29.98 "HgN/A
10:30 PM75 °FOvercast.3 mph34%29.98 "HgN/A
10:00 PM75 °FMostly cloudy.3 mph31%29.98 "HgN/A
9:30 PM75 °FPartly cloudy.1 mph31%29.95 "HgN/A
8:30 PM75 °FPartly cloudy.3 mph36%29.95 "HgN/A
8:00 PM81 °FSprinkles. Mostly cloudy.8 mph21%29.95 "HgN/A
7:30 PM79 °FPassing clouds.1 mph24%29.92 "HgN/A
7:00 PM81 °FPassing clouds.3 mph21%29.92 "HgN/A
6:30 PM81 °FScattered clouds.3 mph23%29.92 "HgN/A
6:00 PM82 °FPartly sunny.6 mph20%29.89 "HgN/A
5:30 PM82 °FScattered clouds.8 mph19%29.89 "HgN/A
5:00 PM84 °FPartly sunny.3 mph19%29.89 "HgN/A
4:30 PM84 °FScattered clouds.8 mph19%29.89 "HgN/A
4:00 PM84 °FPartly sunny.10 mph20%29.89 "HgN/A
Weather by CustomWeather, © 2015

See weather overviewHow to use our weather pages